Regional Weather Roundup
Issued by NWS

Home | Current Version | Previous Version | Text Only | Print | Product List | Glossary On
Versions: 1 2 3 4 5 6 7 8 9 10 11 12 13 14 15 16 17 18 19 20 21 22 23 24 25 26 27
000
ASUS45 KREV 261010
RWRNV
NEVADA REGIONAL WEATHER ROUNDUP
NATIONAL WEATHER SERVICE RENO NV
300 AM PDT TUE JUL 26 2016

NOTE: "FAIR" INDICATES FEW OR NO CLOUDS BELOW 12,000 FEET WITH NO
SIGNIFICANT WEATHER AND/OR OBSTRUCTIONS TO VISIBILITY.

NVZ001-003-004-261100-
WESTERN NEVADA

CITY           SKY/WX    TMP DP  RH WIND       PRES   REMARKS
RENO           CLEAR     64  34  32 S5        30.16R
CARSON CITY    FAIR      59  37  44 CALM      30.19R
MINDEN         FAIR      54  37  54 CALM      30.19R
SLIDE MTN        N/A     57  -4   8 W12         N/A
PYRAMID LAKE     N/A     75 N/A N/A W5          N/A
FALLON         CLEAR     67  33  28 SE7       30.08R
LOVELOCK       CLEAR     61  28  28 CALM      30.06R
HAWTHORNE      CLEAR     73  34  23 CALM      30.11S
$$

NVZ002-CAZ072-073-261100-
NORTHERN AND CENTRAL SIERRA

CITY           SKY/WX    TMP DP  RH WIND       PRES   REMARKS
S. LAKE TAHOE  CLEAR     45  38  76 S5        30.29R
TRUCKEE        CLEAR     43  37  81 CALM      30.29R
SQUAW VLY 8000 NOT AVBL
SUSANVILLE     CLEAR     66  36  32 SW7       30.13
MAMMOTH LAKES    N/A     56  24  28 N3        30.34R
BRIDGEPORT       N/A     47  23  38 CALM      30.31R
$$

NVZ030-031-036-261100-
NORTHERN NEVADA

CITY           SKY/WX    TMP DP  RH WIND       PRES   REMARKS
ELKO           CLEAR     58  23  26 NE5       30.13R
WINNEMUCCA     CLEAR     55  19  24 CALM      30.07S
WENDOVER       CLEAR     75  34  22 CALM      30.03S
$$

NVZ035-037-261100-
CENTRAL NEVADA

CITY           SKY/WX    TMP DP  RH WIND       PRES   REMARKS
ELY            CLEAR     56  22  26 S12       30.21S
EUREKA           N/A     56  19  23 S8        30.19S
$$

NVZ013-014-261100-
SOUTH CENTRAL NEVADA

CITY           SKY/WX    TMP DP  RH WIND       PRES   REMARKS
TONOPAH        CLEAR     66  15  14 N7        30.16R
$$

NVZ017-020-022-261100-
SOUTHERN NEVADA

CITY           SKY/WX    TMP DP  RH WIND       PRES   REMARKS
LAS VEGAS      PTCLDY    94  42  16 S8        29.82R
N. LAS VEGAS   CLEAR     89  50  26 CALM      29.86R
NELLIS AFB     CLEAR     95  55  26 E12       29.84R
HENDERSON      CLEAR     91  52  26 S12       29.91R
MERCURY        CLEAR     81  36  19 N8        29.95S
$$




USA.gov is the U.S. government's official web portal to all federal, state and local government web resources and services.